STARLINK-35443

Last updated on Sun Dec 07 2025 00:02:05 GMT+0000 (Coordinated Universal Time)

1 66339U 25253W 25340.58335648 .00093685 00000+0 22254-2 0 9997 2 66339 43.0009 20.9614 0001596 265.3323 129.8299 15.40660751 5989
UTC large
Height (km)
Speed (km/s)
/
Latitude / Longitude
Inclination (degrees)
Orbital Period (minutes)
Azimuth
Elevation
Range (km)
Doppler Factor

Next 0 passes for location: London (51.5072 / 0.1276)

Sorry there are no passes over London.